Location: Newark
(44.3248°N, 23.7839°E)
Time: 19:14:24
(UTC+00:00)

BEESAT - Visible Passes

Search period start: 22 April 2024 00:00
Search period end: 02 May 2024 00:00
Orbit: 693 x 702 km, 98.5° (Epoch: 21 April)

Date Brightness Start Highest point End Pass type
(mag) Time Alt. Az. Time Alt. Az. Time Alt. Az.
22 Apr ? 20:04:05 10° NNE 20:07:10 34° NE 20:07:10 34° NE visible
22 Apr ? 21:42:18 10° NNW 21:45:57 23° WNW 21:45:57 23° WNW visible
23 Apr ? 19:09:45 10° ENE 19:10:13 11° ENE 19:10:13 11° ENE visible
23 Apr ? 20:45:11 10° N 20:49:00 56° N 20:49:00 56° N visible
24 Apr ? 19:49:12 10° NNE 19:52:03 26° ENE 19:52:03 26° ENE visible
24 Apr ? 21:26:51 10° N 21:30:51 30° WNW 21:30:51 30° WNW visible
25 Apr ? 20:30:03 10° NNE 20:33:53 58° NNE 20:33:53 58° NNE visible
25 Apr ? 22:09:26 10° NNW 22:11:46 14° WNW 22:12:41 13° WNW visible
26 Apr ? 19:34:27 10° NE 19:36:56 20° ENE 19:36:56 20° ENE visible
26 Apr ? 21:11:29 10° N 21:15:43 42° WNW 21:15:43 42° WNW visible
27 Apr ? 20:14:57 10° NNE 20:18:45 48° ENE 20:18:45 48° ENE visible
27 Apr ? 21:53:35 10° NNW 21:56:48 19° WNW 21:57:32 18° WNW visible
28 Apr ? 19:19:56 10° NE 19:21:46 15° ENE 19:21:46 15° ENE visible
28 Apr ? 20:56:11 10° N 21:00:33 58° WNW 21:00:33 58° WNW visible
29 Apr ? 19:59:56 10° NNE 20:03:34 36° ENE 20:03:34 36° ENE visible
29 Apr ? 21:37:57 10° N 21:41:47 25° WNW 21:42:22 24° WNW visible
30 Apr ? 19:06:07 10° ENE 19:06:35 11° ENE 19:06:35 11° ENE visible
30 Apr ? 20:40:54 10° NNE 20:45:22 78° NNW 20:45:22 78° NNW visible
30 Apr ? 22:21:08 10° NW 22:22:28 11° WNW 22:23:48 10° WNW visible
01 May ? 19:45:01 10° NE 19:48:21 27° E 19:48:21 27° E visible
01 May ? 21:22:26 10° N 21:26:41 34° WNW 21:27:09 33° W visible
